Home   Weather   Ulyanovsk   Past weeks

Flag for Russia Past Weather in Ulyanovsk, Russia — Yesterday and Last 2 Weeks

Now
54 °F

Scattered clouds.


Feels Like: 49 °F
Forecast: 36 / 40 °F
Wind: 17 mph from West

Location: Ulyanovsk Vostochny Airport

Current Time: Apr 23, 2017 at 4:02:56 pm

Latest Report: Apr 23, 2017 at 3:00 pm


Visibility: 5 mi

Pressure: 29.71 "Hg

Humidity: 35%

Dew Point: 27 °F

Location of UlyanovskLocation

Past Weather in Ulyanovsk — Graph

°F

Ulyanovsk Temperature Yesterday

Maximum temperature yesterday: 41 °F (at 10:00 am)
Minimum temperature yesterday: 30 °F (at 4:00 am)
Average temperature yesterday: 35 °F

High & Low Weather Summary for the Past Weeks

 TemperatureHumidityPressure
High64 °F (Apr 12, 1:00 pm)100% (Apr 15, 5:00 am)30.18 "Hg (Apr 15, 5:00 am)
Low25 °F (Apr 10, 6:00 am)28% (Apr 10, 4:00 pm)29.27 "Hg (Apr 15, 6:00 am)
Average41 °F68%29.81 "Hg
* Reported Apr 8 3:00 pm — Apr 23 3:00 pm, Ulyanovsk, Weather by CustomWeather, © 2017

Note: Actual official high and low records may vary slightly from our data, if they occured in-between our weather recording intervals... More about our weather records

Advertising

Ulyanovsk Weather History for the Previous 24 Hours

Scroll right to see more
 ConditionsComfort  
Time TempWeatherWind HumidityBarometerVisibility
3:00 pm
Sun, Apr 23
54 °FScattered clouds.17 mph35%29.71 "Hg5 mi
2:00 pm54 °FScattered clouds.15 mph41%29.68 "Hg5 mi
1:00 pm52 °FScattered clouds.17 mph44%29.68 "Hg5 mi
12:00 pm52 °FPartly sunny.17 mph50%29.65 "Hg5 mi
11:00 am50 °FPartly sunny.17 mph62%29.62 "Hg5 mi
10:00 am45 °FOvercast.15 mph76%29.62 "Hg5 mi
9:00 am43 °FOvercast.10 mph87%29.59 "Hg5 mi
8:00 am36 °FOvercast.8 mph93%29.56 "Hg5 mi
7:00 am36 °FOvercast.8 mph93%29.56 "Hg5 mi
6:00 am34 °FOvercast.8 mph93%29.56 "Hg5 mi
5:00 am32 °FIce fog.6 mph100%29.56 "Hg3 mi
4:00 am32 °FIce fog.3 mph100%29.56 "Hg3 mi
3:00 am34 °FOvercast.3 mph93%29.56 "Hg5 mi
2:00 am32 °FMostly cloudy.3 mph100%29.56 "Hg5 mi
1:00 am34 °FMostly cloudy.1 mph93%29.56 "Hg5 mi
12:00 am34 °FMostly cloudy.1 mph93%29.56 "Hg5 mi
11:00 pm
Sat, Apr 22
34 °FMostly cloudy.3 mph93%29.56 "Hg5 mi
10:00 pm34 °FLight rain. Mostly cloudy.No wind93%29.56 "Hg5 mi
9:00 pm34 °FLight rain. Mostly cloudy.1 mph93%29.56 "Hg5 mi
8:00 pm34 °FLight rain. Mostly cloudy.6 mph93%29.56 "Hg5 mi
7:00 pm34 °FLight rain. Mostly cloudy.6 mph93%29.56 "Hg3 mi
6:00 pm36 °FLight rain. Mostly cloudy.13 mph93%29.56 "Hg5 mi
5:00 pm37 °FLight rain. Mostly cloudy.13 mph87%29.59 "Hg5 mi
4:00 pm37 °FLight rain. Mostly cloudy.13 mph87%29.59 "Hg5 mi
Weather by CustomWeather, © 2017

See weather overviewHow to use our weather pages